This demonstration page uses our WeatherBlox Daily Observations layout. Learn more.

Left ArrowRight Arrow

31.84235, -102.49876

Hourly Observations for May 21, 2022

Temp ( °F °C ) Dew Point ( °F °C ) Humidity (%) Winds ( mph kmh ) Pressure ( in mb ) Visibility ( mi km ) Precip ( " mm )
12:53 am 00:53 Clear 78 25.6 22 -5.6 12 12 SSW 6 9 29.57 1001 10 16 0.00 0.00
1:53 am 01:53 Clear 73 22.8 21 -6.1 14 14 NW 7 11 29.59 1002 10 16 0.00 0.00
2:53 am 02:53 Clear 73 22.8 19 -7.2 13 13 SSW 5 7 29.59 1002 10 16 0.00 0.00
3:53 am 03:53 Clear 72 22.2 19 -7.2 13 13 S 9 15 29.60 1003 10 16 0.00 0.00
4:53 am 04:53 Clear 78 25.6 36 2.2 22 22 S 13 20 29.62 1003 10 16 0.00 0.00
5:53 am 05:53 Clear 72 22.2 39 3.9 30 30 SW 7 11 29.65 1004 10 16 0.00 0.00
6:53 am 06:53 Sunny 68 20 34 1.1 28 28 NNE 15 24 29.71 1006 10 16 0.00 0.00
7:53 am 07:53 Sunny 64 17.8 46 7.8 52 52 NNE 29 46 29.76 1008 8 13 0.00 0.00
8:53 am 08:53 Hazy 65 18.3 44 6.7 47 47 NNE 22 35 29.80 1009 3 5 0.00 0.00
8:57 am 08:57 Hazy 64 17.8 41 5 43 43 NNE 18 30 29.85 1011 2 3 0.00 0.00
9:04 am 09:04 Mostly Cloudy with Haze 63 17.2 40 4.4 43 43 NNE 21 33 29.87 1012 1 2 0.00 0.00
9:26 am 09:26 Cloudy with Haze 63 17.2 37 2.8 38 38 NNE 21 33 29.88 1012 2 3 0.00 0.00
9:42 am 09:42 Cloudy with Haze 65 18.3 36 2.2 34 34 NNE 18 30 29.88 1012 3 5 0.00 0.00
9:53 am 09:53 Cloudy with Haze 65 18.3 36 2.2 34 34 NNE 22 35 29.85 1011 3 5 0.00 0.00
10:03 am 10:03 Cloudy with Haze 65 18.3 36 2.2 34 34 NNE 22 35 29.90 1012 3 5 0.00 0.00
10:53 am 10:53 Cloudy with Haze 68 20 36 2.2 31 31 NNE 18 30 29.88 1012 3 5 0.00 0.00
11:53 am 11:53 Cloudy with Haze 71 21.7 35 1.7 27 27 NNE 17 28 29.91 1013 5 8 0.00 0.00
12:53 pm 12:53 Cloudy with Haze 74 23.3 36 2.2 25 25 NNE 15 24 29.92 1013 5 8 0.00 0.00
1:53 pm 13:53 Cloudy with Haze 77 25 36 2.2 23 23 NNE 13 20 29.92 1013 5 8 0.00 0.00
2:53 pm 14:53 Cloudy 80 26.7 37 2.8 21 21 NE 12 19 29.91 1013 7 11 0.00 0.00
3:53 pm 15:53 Mostly Cloudy 81 27.2 37 2.8 21 21 ENE 12 19 29.90 1013 9 14 0.00 0.00
4:02 pm 16:02 Mostly Cloudy 81 27.2 37 2.8 21 21 ENE 12 19 29.85 1011 9 14 0.00 0.00
4:53 pm 16:53 Sunny 83 28.3 37 2.8 19 19 NE 13 20 29.87 1012 10 16 0.00 0.00
5:53 pm 17:53 Sunny 82 27.8 37 2.8 20 20 E 9 15 29.89 1012 10 16 0.00 0.00
6:53 pm 18:53 Sunny 82 27.8 37 2.8 20 20 ENE 10 17 29.90 1013 10 16 0.00 0.00
7:53 pm 19:53 Sunny 79 26.1 37 2.8 22 22 ENE 14 22 29.93 1014 10 16 0.00 0.00
8:53 pm 20:53 Clear 76 24.4 38 3.3 25 25 ENE 15 24 29.97 1015 10 16 0.00 0.00
9:53 pm 21:53 Clear 73 22.8 38 3.3 28 28 ENE 17 28 30.00 1016 10 16 0.00 0.00
10:53 pm 22:53 Clear 71 21.7 38 3.3 30 30 ENE 17 28 30.01 1016 10 16 0.00 0.00
11:53 pm 23:53 Clear 68 20 38 3.3 33 33 ENE 18 30 30.02 1017 10 16 0.00 0.00

Powered by AerisWeather